Weather History for KEAT - March, 2011

Change the Weather History Date:

Friday, March 4, 2011

  Actual Average Record
Temperature  
Mean Temperature 32 °F 35 °F  
Max Temperature 38 °F 44 °F 61 °F (2005)
Min Temperature 25 °F 26 °F 6 °F (1960)
Degree Days  
Heating Degree Days 33 30  
Month to date heating degree days 127 121  
Since 1 July heating degree days 5409 5320  
Cooling Degree Days 0 0  
Month to date cooling degree days 0 0  
Year to date cooling degree days 0 0  
Moisture  
Dew Point 25 °F    
Average Humidity 79    
Maximum Humidity 100    
Minimum Humidity 51    
Precipitation  
Precipitation 0.00 in 0.06 in 0.25 in (1996)
Month to date precipitation 0.28 0.21  
Year to date precipitation 3.38 3.54  
Snow  
Snow 0.00 in 0.20 in - ()
Month to date snowfall 1.0 0.7  
Since 1 July snowfall 68.2 47.1  
Snow Depth 4.00 in    
Sea Level Pressure  
Sea Level Pressure 30.20 in    
Wind  
Wind Speed 5 mph (WNW)    
Max Wind Speed 9 mph    
Max Gust Speed 20 mph    
Visibility 5 miles    
Events Fog , Snow    
T = Trace of Precipitation, MM = Missing Value Source: NWS Daily Summary

Daily Weather History Graph

Daily Weather History Graph

Search for Another Location

Airport or City:

Trip Planner

Search our weather history database for the weather conditions in past years. The results will help you decide how hot, cold, wet, or windy it might be!

Date:

Astronomy

Mar. 04, 2011 Rise Set
Actual Time 6:35 AM PST 5:50 PM PST
Civil Twilight 6:05 AM PST 6:20 PM PST
Nautical Twilight 5:29 AM PST 6:56 PM PST
Astronomical Twilight 4:53 AM PST 7:32 PM PST
Moon 6:07 AM PST (3/4) 6:09 PM PST (3/4)
Length of Visible Light 12h 15m
Length of Day
11h 14m
Waning Crescent, 0% of the Moon is Illuminated
Mar 4
Waning Crescent
Mar 4
New
Mar 12
First Quarter
Mar 19
Full
Mar 26
Last Quarter

Hourly Weather History & Observations

Time (PST) Temp. Windchill Dew Point Humidity Pressure Visibility Wind Dir Wind Speed Gust Speed Precip Events Conditions
12:55 AM 35.1 °F 27.9 °F 19.0 °F 52% 30.22 in 10.0 mi NW 9.2 mph 19.6 mph N/A   Clear
1:55 AM 34.0 °F 26.6 °F 18.0 °F 52% 30.25 in 10.0 mi West 9.2 mph - N/A   Clear
2:55 AM 30.0 °F 25.2 °F 18.0 °F 61% 30.27 in 10.0 mi ENE 4.6 mph - N/A   Clear
3:55 AM 30.9 °F 27.5 °F 17.1 °F 57% 30.29 in 10.0 mi North 3.5 mph - N/A   Clear
4:55 AM 28.0 °F - 17.1 °F 63% 30.30 in 10.0 mi Calm Calm - N/A   Clear
5:55 AM 28.9 °F - 16.0 °F 58% 30.31 in 10.0 mi Calm Calm - N/A   Clear
6:55 AM 28.9 °F 25.2 °F 18.0 °F 64% 30.33 in 10.0 mi NNW 3.5 mph - N/A   Clear
7:55 AM 30.9 °F 22.8 °F 18.0 °F 59% 30.33 in 10.0 mi NW 9.2 mph - N/A   Clear
8:55 AM 32.0 °F 24.2 °F 19.9 °F 61% 30.33 in 10.0 mi NW 9.2 mph - N/A   Scattered Clouds
9:55 AM 33.1 °F 25.5 °F 21.0 °F 61% 30.33 in 10.0 mi NW 9.2 mph - N/A   Clear
10:55 AM 34.0 °F - 21.9 °F 61% 30.34 in 10.0 mi Calm Calm - N/A   Partly Cloudy
11:55 AM 35.1 °F - 21.9 °F 59% 30.32 in 10.0 mi Calm Calm - N/A   Scattered Clouds
12:55 PM 36.0 °F - 21.0 °F 55% 30.29 in 10.0 mi Calm Calm - N/A   Mostly Cloudy
1:55 PM 37.0 °F 32.4 °F 21.0 °F 52% 30.27 in 10.0 mi West 5.8 mph - N/A   Overcast
2:55 PM 37.9 °F 33.5 °F 21.0 °F 51% 30.27 in 10.0 mi WNW 5.8 mph - N/A   Overcast
3:55 PM 37.9 °F 35.5 °F 21.0 °F 51% 30.23 in 10.0 mi West 3.5 mph - N/A   Scattered Clouds
4:55 PM 37.0 °F - 21.9 °F 54% 30.21 in 10.0 mi Calm Calm - N/A   Overcast
5:55 PM 37.0 °F 34.5 °F 21.9 °F 54% 30.20 in 10.0 mi WNW 3.5 mph - N/A   Overcast
6:55 PM 35.1 °F 30.1 °F 26.1 °F 70% 30.19 in 10.0 mi West 5.8 mph - N/A   Overcast
7:38 PM 33.8 °F - 28.4 °F 81% 30.15 in 3.0 mi Calm Calm - 0.00 in Snow Light Snow
7:43 PM 33.8 °F - 28.4 °F 81% 30.14 in 2.5 mi Calm Calm - 0.00 in Snow Light Snow
7:55 PM 33.1 °F - 30.0 °F 89% 30.18 in 1.8 mi Calm Calm - 0.00 in Snow Light Snow
8:14 PM 32.0 °F - 30.2 °F 93% 30.14 in 1.8 mi Calm Calm - 0.00 in Snow Light Snow
8:22 PM 30.2 °F 25.4 °F 30.2 °F 100% 30.13 in 2.0 mi West 4.6 mph - 0.00 in Snow Light Snow
8:31 PM 30.2 °F 23.4 °F 30.2 °F 100% 30.14 in 1.5 mi West 6.9 mph - 0.00 in Snow Light Snow
8:43 PM 30.2 °F 25.4 °F 30.2 °F 100% 30.13 in 0.5 mi West 4.6 mph - 0.01 in Fog , Snow Light Snow
8:49 PM 30.2 °F - 30.2 °F 100% 30.13 in 0.5 mi Calm Calm - 0.01 in Fog , Snow Light Snow
8:55 PM 30.9 °F 27.5 °F 30.9 °F 100% 30.17 in 0.5 mi WSW 3.5 mph - 0.01 in Fog , Snow Snow
9:37 PM 30.2 °F 26.7 °F 30.2 °F 100% 30.14 in 1.2 mi NW 3.5 mph - 0.01 in Snow Light Snow
9:55 PM 30.9 °F - 30.9 °F 100% 30.17 in 1.0 mi Calm Calm - 0.03 in Snow Light Snow
10:14 PM 30.2 °F - 30.2 °F 100% 30.11 in 1.2 mi Calm Calm - 0.01 in Snow Light Snow
10:22 PM 30.2 °F 26.7 °F 30.2 °F 100% 30.11 in 0.8 mi West 3.5 mph - 0.02 in Snow Light Snow
10:28 PM 30.2 °F 25.4 °F 30.2 °F 100% 30.11 in 1.2 mi WNW 4.6 mph - 0.02 in Snow Light Snow
10:33 PM 30.2 °F 24.3 °F 30.2 °F 100% 30.11 in 3.0 mi NW 5.8 mph - 0.02 in Snow Light Snow
10:55 PM 30.9 °F 23.5 °F 30.0 °F 96% 30.14 in 2.5 mi West 8.1 mph - 0.02 in Snow Light Snow
10:58 PM 30.2 °F 23.4 °F 30.2 °F 100% 30.11 in 1.0 mi WNW 6.9 mph - 0.00 in   Overcast
11:05 PM 30.2 °F 23.4 °F 30.2 °F 100% 30.11 in 0.2 mi West 6.9 mph - 0.00 in Fog Light Freezing Fog
11:18 PM 30.2 °F 23.4 °F 30.2 °F 100% 30.10 in 0.2 mi WNW 6.9 mph - 0.00 in Fog Light Freezing Fog
11:35 PM 30.2 °F 22.6 °F 30.2 °F 100% 30.10 in 0.5 mi WNW 8.1 mph - 0.00 in Fog Light Freezing Fog
11:53 PM 30.2 °F 24.3 °F 30.2 °F 100% 30.10 in 2.0 mi WNW 5.8 mph - 0.00 in   Overcast
11:55 PM 30.9 °F 25.2 °F 30.9 °F 100% 30.13 in 4.0 mi West 5.8 mph - 0.00 in   Overcast